TITAN 3C TRANSTAGE DEB, 20672

Orbit data source: Space-Track

TITAN 3C TRANSTAGE DEB, 20672 is space debris in HEO originally from a launch on Tue, 21 Dec 1965 UTC launched from the Air Force Eastern Test Range (AFETR). Debris objects in space refer to the collection of defunct objects orbiting the Earth. Examples of debris include non-operational satellites, rocket bodies, and fragments generated from explosions, collisions, or faulty payload assembly.

Loading next visibility...
Identifier
20672, 1965-108AD
Orbit
HEO
Last TLE update
1 week ago
Origin
Manufacturer
Unknown
Mission
Spacecraft
Bus & Motor
Unknown
Mass
Unknown
Launch date (UTC)
1965-12-21 (59 years ago)
Launch vehicle
Unknown
Launch site
Air Force Eastern Test Range (AFETR)
Object type
Payload
Rocket body
Debris
Shape & HBR
Unknown
Radar Cross Section
Small (<0.1 m²)

Expand to show TLE details & history

TLE from 1 week ago
0 TITAN 3C TRANSTAGE DEB
1 20672U 65108AD  25120.90769244  .00000171  00000-0  28465-2 0  9994
2 20672  27.1457  23.5032 6808411  23.0397   7.6703  2.70041681 36384
Epoch: 2025-04-30T21:47Z
Definitive object data (Epoch: 2025-04-30T21:47:04.626Z)
Latitude
25.99172°
Longitude
-91.33197°
Altitude
1,724.11 km
Speed
8.952 km/s
True Right ascension
06h 18m 05s
True Declination
25° 52' 22"
Sunlit
Object was in daylight at TLE epoch
Visualization TLE readout
Latitude
-11.94867°
Longitude
38.50371°
Altitude
30,213.424 km
Speed
1.868 km/s
Apparent Right ascension
15h 10m 35s
Apparent Declination
-20° 24' 02"
Sunlit
Object is in full shadow
Visualization observer readout
Local Sidereal Time
13:31:30
Azimuth
154.231° SSE
Elevation
25.409°
Doppler factor
1
Orbital elements
Apogee altitude
30,241.339 km
Perigee altitude
575.186 km
Semi-major axis
21,786.4 km
Eccentricity
0.6808411
Inclination
27.1457°
RAAN
23.5032°
Arg. of periapsis
23.0397°
True anomaly
49.59409°
Mean anomaly
7.6703°
Eccentric anomaly
22.76513°
Mean motion
0.67494 °/min
BSTAR
0.0028465
Orbital period
533.38 mins
Loading maneuver chart data...
Loading SW <> Apogee altitude chart data...

TITAN 3C TRANSTAGE DEB Visibility forecast

Observer location: undefined°, undefined°

Span
Click to sort rows by Start time (UTC) header in descending order
Start Az.
Max El. time (UTC)
Max El. Az.
Max El.
End time (UTC)
End Az.
175 mins2025-05-09 05:22:50.626Z154.24° SSE2025-05-09 05:22:50.626Z154.24° SSE23.212°2025-05-09 08:17:50.626Z164.662° S
71 mins2025-05-10 04:11:50.626Z264.174° W2025-05-10 04:54:50.626Z210.265° SW34.394°2025-05-10 05:22:50.626Z199.9° SSW
|